Regional Weather Roundup
Issued by NWS

Home | Current Version | Previous Version | Graphics & Text | Print | Product List | Glossary On
Versions: 1 2 3 4 5 6 7 8 9 10 11 12 13 14 15 16 17 18 19 20 21 22 23 24 25 26 27 28 29 30 31 32 33 34 35 36 37 38 39 40 41 42 43 44 45 46 47 48 49 50
000
ASUS44 KMEG 160810
RWRTN
TENNESSEE HOURLY STATE WEATHER ROUNDUP
NATIONAL WEATHER SERVICE MEMPHIS TN
200 AM CST TUE JAN 16 2018

TNZ002-004-019-021-049-052-054-088>092-160900-
WEST TENNESSEE

CITY           SKY/WX    TMP DP  RH WIND       PRES   REMARKS
MEMPHIS INTL   LGT SNOW  20  17  88 N14       30.56R FOG     WCI   7
NWS MEMPHIS      N/A     20 N/A N/A MISG        N/A
JACKSON        LGT SNOW  19  15  84 N17       30.55R FOG     WCI   4
DYERSBURG      LGT SNOW  16  12  84 N14       30.59R FOG     WCI   2
SOMERVILLE     CLOUDY    21  18  86 N12       30.51S FOG     WCI   9
COVINGTON      CLOUDY    18  14  86 N16       30.57S FOG     WCI   3
UNION CITY     CLOUDY    14  10  85 N13       30.59R FOG     WCI   0
BOLIVAR        CLOUDY    23  19  86 NW10G21   30.51R WCI  12
PARIS          CLOUDY    14  10  85 N8G17     30.54R FOG     WCI   3
HUNTINGDON     CLOUDY    18  14  86 VRB6G15   30.54R FOG     WCI   9
LEXINGTON      CLOUDY    23  19  86 N10G18    30.49R WCI  12
SELMER         CLOUDY    25  21  86 N9G16     30.47R WCI  15
SAVANNAH       CLOUDY    27  21  80 N10       30.47R WCI  17
$$

TNZ008-025-027-028-033-062-065-066-160900-
NORTH MIDDLE TENNESSEE

CITY           SKY/WX    TMP DP  RH WIND       PRES   REMARKS
NASHVILLE      CLOUDY    22  14  71 N13       30.49R WCI  10
PORTLAND       CLOUDY    18  14  86 N10       30.48R FOG     WCI   6
CLARKSVILLE    LGT SNOW  15   9  76 NW12      30.53R WCI   2
SMYRNA         FLURRIES  22  16  78 N16       30.49R WCI   8
COOKEVILLE     CLOUDY    30  27  86 VRB5G12   30.38R WCI  25
GALLATIN       CLOUDY    21  14  73 N14       30.51R WCI   8
CROSSVILLE     CLOUDY    28  24  85 N3        30.32R
$$

TNZ061-075-076-078-094-096-097-160900-
SOUTH MIDDLE TENNESSEE

CITY           SKY/WX    TMP DP  RH WIND       PRES   REMARKS
FAYETTEVILLE   CLOUDY    32  27  80 NE7       30.36S WCI  26
TULLAHOMA      CLOUDY    30  25  80 N8        30.37R WCI  23
WINCHESTER     CLOUDY    28  25  86 CALM      30.39R
MCMINNVILLE    CLOUDY    30  28  93 N9        30.38R WCI  22
COLUMBIA       CLOUDY    27  23  86 N10       30.44R WCI  17
SHELBYVILLE    CLOUDY    27  23  86 N18       30.42R WCI  13
$$

TNZ017-018-042-046-047-160900-
NORTHEAST TENNESSEE

CITY           SKY/WX    TMP DP  RH WIND       PRES   REMARKS
TRI CITIES     FAIR      22  21  96 CALM      30.34R
ELIZABETHTON   MOCLDY    28  25  86 CALM      30.35S
$$

TNZ012-013-036-069-073-074-160900-
CENTRAL EAST TENNESSEE

CITY           SKY/WX    TMP DP  RH WIND       PRES   REMARKS
KNOXVILLE      MOCLDY    29  25  85 NW3       30.32F
OAK RIDGE      FAIR      27  24  89 CALM      30.35S
DOWNTOWN KNOXV   N/A     27  27 100 CALM      30.35S
GATLINBURG     PTCLDY    23  21  93 CALM      30.33S
MORRISTOWN     MOCLDY    27  25  93 CALM      30.32S
JACKSBORO      CLOUDY    28  25  86 CALM      30.37R
$$

TNZ083-085-099-160900-
SOUTHEAST TENNESSEE

CITY           SKY/WX    TMP DP  RH WIND       PRES   REMARKS
CHATTANOOGA    FAIR      27  22  81 E3        30.36S
DAYTON         CLOUDY    27  27 100 CALM      30.34S
$$

SKY/WX REPORTED AS FAIR MEANS FEW OR NO CLOUDS BELOW
12 THOUSAND FEET.





USA.gov is the U.S. government's official web portal to all federal, state and local government web resources and services.